Tracking 20093 objects as of 15-Dec-2019
HD Live streaming from Space Station
objects crossing your sky now

COSMOS 2251 DEB

Track COSMOS 2251 DEB now!
10-day predictions


NORAD ID: 33906
Int'l Code: 1993-036DK
Perigee: 746.3 km
Apogee: 829.8 km
Inclination: 74.0 °
Period: 100.5 minutes
Semi major axis: 7159 km
RCS: 0.058 m2 (small)
Launch date: June 16, 1993
Source: Commonwealth of Independent States (former USSR) (CIS)
Launch site: PLESETSK MISSILE AND SPACE COMPLEX (PKMTR)

Note: This is SATELLITE DEBRIS
aabbcc
Your satellite tracking list
Your tracking list is empty




NASA's NSSDC Master Catalog

Two Line Element Set (TLE):
1 33906U 93036DK  19348.35950303 +.00000543 +00000-0 +20318-3 0  9994
2 33906 074.0398 047.2940 0058307 261.6449 223.4276 14.33254454564854
Source of the keplerian elements: AFSPC